SL-19 R/B

Satellite information

Favourite Embed

Satellite Type and Status

ROCKET BODYIN ORBIT

Key statistics

Satellite SL-19 R/B at a glance.

Uptime

7078

Days in orbit

Revolutions

≈ 15.0

Per day

Orbit

SSO

Sun Synchronous Orbit

Inclination

98.3

Latest

Satellite identification and parameters

Extended collection of information and parameters for SL-19 R/B.

Object identification

Identified? True

Debris? False

Object name: SL-19 R/B

International designator: 2006-031B

Object number (NORAD): 29269

Object ID (CCSDS): 29269

Country: COMMONWEALTH OF INDEPENDENT STATES (CIS)

Current information (Y/N): Y

RCS size: LARGE

Orbital parameters

Period: 95.75 minutes

Inclination: 98.2613 deg

SMA: 6932.989 km

Apoapsis: 630.228 km

Periapsis: 479.481 km

RAAN: 320.7765 deg

Eccentricy: 0.0108717

Argument of periapsis: 54.4482 deg

Mean anomaly: 306.6818 deg

Mean motion: 15.03910438 rev/day

Mean motion (dot): 0.00004477 rev/day2

B* drag term: 0.00029002 1/REarth

Two-line elements (TLE)

Creation date: Dec. 12, 2025, 7:26 a.m.

Reference frame: TEME

Reference center: EARTH

Epoch: Dec. 11, 2025, 9:34 p.m. UTC

TLE line 0: 0 SL-19 R/B

TLE line 1: 1 29269U 06031B 25345.89929630 .00004477 00000-0 29002-3 0 9991

TLE line 2: 2 29269 98.2613 320.7765 0108717 54.4482 306.6818 15.03910438 55848

Live tracking on map

Real-time ground track for satellite SL-19 R/B.

In-orbit conjunctions

A list of the most updated potential collisions computed for object SL-19 R/B.

Target Orbit TCA Probability of collision Miss distance Type
CZ-6A DEB LEO 2025-06-01 03:42:56 0.000220896 130.0 (m) DEBRIS
PSLV DEB SSO 2024-12-28 23:18:46 0.0005686214 149.0 (m) DEBRIS

Associated space launch

KOMPSAT 2 (Korean Multi-purpose Satellite 2) is a lightweight Earth observation satellite developed by the Korea Aerospace Research Institute KARI. It provides high-resolution images, produced by the Multi-Spectral Camera (MSC), of the Korean peninsula for the production of maps and digital elevation models, applications for which include land use planning and disaster and risk management.

SL-19 R/B was lifted into orbit during the mission ‘Rokot / Briz-KM | Arirang-2’, on board a Rokot/Briz-KM space rocket.

The launch took place on July 28, 2006, 7:05 a.m. from 133/3 (133L).

For more information about the launch, click the button.

Launch to space Rokot / Briz-KM | Arirang-2
Rokot / Briz-KM | Arirang-2

Agency: N/A

Status: Launch Successful

Launch date: July 28, 2006, 7:05 a.m. UTC

Rocket: Rokot/Briz-KM

Launch pad: 133/3 (133L)

Location: Plesetsk Cosmodrome, Russian Federation

...

Latest news about this satellite

There are no fresh news available about this satellite. Check back as we update our databases every day.


Newsletter sign-up

Weekly statistics, charts and insights to help you stay on top of the space industry.